Home   Weather   Lloydminster   Past weeks

Flag for Canada Past Weather in Lloydminster, Alberta, Canada — Yesterday and Last 2 Weeks

Now
57 °F

Mostly cloudy.


Feels Like: 55 °F
Forecast: 45 / 61 °F
Wind: 9 mph from North

Location: Lloydminister

Current Time: Sep 30, 2016 at 2:31:29 PM

Latest Report: Sep 30, 2016 at 2:00 PM


Visibility: 15 mi

Pressure: 30.06 "Hg (27.83 "Hg at 648m altitude)

Humidity: 72%

Dew Point: 48 °F

Location of LloydminsterLocation

Past Weather in Lloydminster — Graph

°F

Lloydminster Temperature Yesterday

Maximum temperature yesterday: 63 °F (at 3:00 PM)
Minimum temperature yesterday: 41 °F (at 7:00 AM)
Average temperature yesterday: 51 °F

High & Low Weather Summary for the Past Weeks

 TemperatureHumidityPressure
High75 °F (Sep 16, 3:00 PM)100% (Sep 18, 3:00 AM)30.45 "Hg (Sep 18, 3:00 AM)
Low32 °F (Sep 21, 6:00 AM)31% (Sep 15, 5:00 PM)29.47 "Hg (Sep 18, 12:54 AM)
Average51 °F71%30.03 "Hg
* Reported Sep 15 1:00 PM — Sep 30 1:00 PM, Lloydminster, Weather by CustomWeather, © 2016

Note: Actual official high and low records may vary slightly from our data, if they occured in-between our weather recording intervals... More about our weather records

Advertising

Lloydminster Weather History for the Previous 24 Hours

Scroll right to see more
 ConditionsComfort  
Time TempWeatherWind HumidityBarometerVisibility
1:00 PM
Fri, Sep 30
57 °FBroken clouds.5 mph72%30.07 "Hg15 mi
12:00 PM57 °FPartly sunny.9 mph72%30.06 "Hg15 mi
11:00 AM54 °FPartly sunny.8 mph77%30.09 "Hg15 mi
10:00 AM54 °FPartly sunny.9 mph77%30.09 "Hg15 mi
9:00 AM48 °FBroken clouds.8 mph94%30.09 "Hg15 mi
8:00 AM46 °FBroken clouds.7 mph93%30.09 "Hg15 mi
7:00 AM45 °FPartly cloudy.8 mph93%30.09 "Hg15 mi
6:00 AM45 °FClear.5 mph87%30.10 "Hg9 mi
5:00 AM45 °FPassing clouds.5 mph87%30.10 "Hg9 mi
4:00 AM46 °FMostly cloudy.18 mph87%30.04 "Hg9 mi
3:00 AM46 °FLight rain. Passing clouds.5 mph87%30.12 "Hg9 mi
2:00 AM45 °FPassing clouds.8 mph87%30.12 "Hg9 mi
1:00 AM46 °FClear.5 mph82%30.14 "Hg9 mi
12:00 AM46 °FPartly cloudy.5 mph82%30.15 "Hg9 mi
11:00 PM
Thu, Sep 29
46 °FPassing clouds.3 mph82%30.17 "Hg9 mi
10:00 PM50 °FPassing clouds.3 mph71%30.18 "Hg15 mi
9:00 PM50 °FPassing clouds.7 mph71%30.18 "Hg15 mi
8:00 PM52 °FPartly cloudy.7 mph72%30.18 "Hg15 mi
7:00 PM55 °FPartly cloudy.6 mph59%30.18 "Hg15 mi
6:00 PM59 °FScattered clouds.6 mph59%30.18 "Hg15 mi
5:00 PM63 °FScattered clouds.9 mph49%30.17 "Hg15 mi
4:00 PM63 °FPartly sunny.9 mph52%30.18 "Hg15 mi
3:00 PM63 °FPartly sunny.9 mph52%30.20 "Hg15 mi
2:00 PM61 °FPartly sunny.10 mph59%30.21 "Hg15 mi
Weather by CustomWeather, © 2016

See weather overviewHow to use our weather pages